SES-7 (PROTOSTAR 2)

Last updated on Oct. 1, 2020, 5:42 a.m. UTC

1 34941U 09027A   20274.93174240 -.00000359  00000-0  00000-0 0  9992
2 34941   0.0676  95.3957 0002081 148.8914 209.5421  1.00272302 41719
UTC
Height (km)
Latitude
Longitude
Inclination
Orbital Period
UTC large
Height (km)
Speed (km/s)
/
Latitude / Longitude
Inclination (degrees)
Orbital Period (minutes)
Azimuth
Elevation
Range (km)
Doppler Factor
iOS Compass Heading
iOS Angle

Next 30 passes for location: Hong Kong

Rise time Rise Azimuth (degrees) Set time Set Azimuth (degrees) Duration Max altitude (degrees)

No matching passes for this satellites